Погода в Ивангороде

Россия / Санкт-Петербург и Ленинградская область     59°22′35″N   28°13′23″E
темп.,
°C
ветер,
м/с
пор.,
м/с
влажн.,
%
обл.,
%
осадки,
мм/ч
давл.,
гПа
погр.,
м
27 июля, вт
вт2700:00+18вюв22675 0.0 102038
03:00+16ююв23735 0.0 102055
06:00+16ююв24731 0.0 102080
09:00+24юв244712 0.0 1019347
12:00+29юв333175 0.0 10182182
15:00+30юв2328100 0.0 10162490
18:00+29юв3333100 0.0 10152538
21:00+22вюв2358100 0.0 101446
28 июля, ср
ср2800:00+20вюв3659100 0.0 1013110
03:00+16юв3992100 1.6 1012194
06:00+17юв2496100 1.1 1011112
09:00+17в3797100 3.8 1010216
12:00+21вюв4780100 0.1 1009819
15:00+22ююз3584100 3.6 1007624
18:00+22зюз258680 3.6 1007448
21:00+19зсз2493100 5.4 100689
29 июля, чт
чт2900:00+17юз22944 0.0 100617
03:00+16юз369623 0.0 1005148
06:00+16юз3797100 0.0 1005206
09:00+19юз4785100 0.0 1004399
12:00+20юз48872 2.1 1003966
15:00+21з59799 3.9 1003947
18:00+21зсз477627 1.1 1002473
21:00+18з12870 1.1 100265
30 июля, пт
пт3000:00+18юз51177100 0.1 1002673
03:00+17юз4108021 0.1 1002552
06:00+16юз5118632 0.0 1001699
09:00+20юз610610 0.0 10011356
12:00+21зюз696011 0.9 10011766
15:00+20зюз595599 1.7 10001294
18:00+22юз6134928 0.3 9992141
21:00+18юз41068100 0.6 998424
31 июля, сб
сб3100:00+17ююз5127131 0.5 998875
03:00+15ююз61386100 1.4 996852
06:00+14ююз51397100 8.8 994945
09:00+15ююз5119699 25.8 993716
12:00+18зюз610862 2.3 9951040
15:00+20зсз58581 2.6 997823
18:00+20з35574 0.0 999670
21:00+17з2369100 0.0 100073